Regional Weather Roundup
Issued by NWS

Home | Current Version | Previous Version | Text Only | Print | Product List | Glossary Off
Versions: 1 2 3 4 5 6 7 8 9 10 11 12 13 14 15 16 17 18 19 20 21 22 23 24 25 26 27 28 29 30 31 32 33 34 35 36 37 38 39 40 41 42 43 44 45 46 47 48 49 50

457
ASUS44 KMEG 270900
RWRTN
TENNESSEE HOURLY STATE WEATHER ROUNDUP
NATIONAL WEATHER SERVICE MEMPHIS TN
400 AM CDT SAT AUG 27 2016

TNZ002-004-019-021-049-052-054-088>092-271000-
WEST TENNESSEE

CITY           SKY/WX    TMP DP  RH WIND       PRES   REMARKS
MEMPHIS INTL   PTCLDY    75  70  84 VRB5      30.01S
NWS MEMPHIS      N/A     70 N/A N/A MISG        N/A
JACKSON        PTCLDY    71  71 100 CALM      30.04R
DYERSBURG      MOCLDY    77  70  78 MISG      30.03S
UNION CITY     CLEAR     70  70 100 CALM      30.02S
PARIS          CLEAR     70  70 100 CALM      30.04F
$$

TNZ008-025-027-028-033-062-065-066-271000-
NORTH MIDDLE TENNESSEE

CITY           SKY/WX    TMP DP  RH WIND       PRES   REMARKS
NASHVILLE      MOCLDY    73  70  90 CALM      30.06F
CLARKSVILLE    CLOUDY    71  69  93 CALM      30.05R
COOKEVILLE     CLEAR     73  73 100 E6        30.07S
CROSSVILLE     CLEAR     70  68  93 CALM      30.14F
$$

TNZ061-075-076-078-094-096-097-271000-
SOUTH MIDDLE TENNESSEE

CITY           SKY/WX    TMP DP  RH WIND       PRES   REMARKS
TULLAHOMA      CLEAR     70  66  88 CALM      30.08S
WINCHESTER     CLEAR     72  70  94 CALM      30.08R
MCMINNVILLE    CLEAR     73  73 100 E3        30.08S
COLUMBIA       CLEAR    N/A N/A N/A CALM      30.04S
SHELBYVILLE    CLEAR     73  73 100 CALM      30.07S
$$

TNZ017-018-042-046-047-271000-
NORTHEAST TENNESSEE

CITY           SKY/WX    TMP DP  RH WIND       PRES   REMARKS
TRI CITIES     CLEAR     68  67  96 CALM      30.15F FOG
$$

TNZ012-013-036-069-073-074-271000-
CENTRAL EAST TENNESSEE

CITY           SKY/WX    TMP DP  RH WIND       PRES   REMARKS
KNOXVILLE      PTCLDY    74  70  87 E3        30.08F
OAK RIDGE      CLEAR     74  72  93 CALM      30.09F
GATLINBURG     CLEAR     70  66  88 CALM      30.09F
$$

TNZ083-085-099-271000-
SOUTHEAST TENNESSEE

CITY           SKY/WX    TMP DP  RH WIND       PRES   REMARKS
CHATTANOOGA    CLEAR     74  73  97 CALM      30.07S
$$

SKY/WX REPORTED AS FAIR MEANS FEW OR NO CLOUDS BELOW
12 THOUSAND FEET.





USA.gov is the U.S. government's official web portal to all federal, state and local government web resources and services.